Weather History for Sparta, WI

Change the Weather History Date:

Thursday, May 2, 2013

  Actual Average Record
Temperature  
Mean Temperature 36 °F -  
Max Temperature 39 °F 65 °F 92 °F (1959)
Min Temperature 32 °F 38 °F 24 °F (1978)
Degree Days  
Heating Degree Days 30    
Moisture  
Dew Point 32 °F    
Average Humidity 90    
Maximum Humidity 100    
Minimum Humidity 75    
Precipitation  
Precipitation 0.20 in - - ()
Sea Level Pressure  
Sea Level Pressure 30.36 in    
Wind  
Wind Speed 11 mph (North)    
Max Wind Speed 15 mph    
Max Gust Speed 23 mph    
Visibility 9 miles    
Events Rain , Snow    
Averages and records for this station are not official NWS values.
T = Trace of Precipitation, MM = Missing Value Source: NWS Daily Summary

Daily Weather History Graph

Daily Weather History Graph

Search for Another Location

Airport:

Trip Planner

Search our weather history database for the weather conditions in past years. The results will help you decide how hot, cold, wet, or windy it might be!

Date:

Astronomy

May. 02, 2013 Rise Set
Actual Time 5:52 AM CDT 8:07 PM CDT
Civil Twilight 5:21 AM CDT 8:39 PM CDT
Nautical Twilight 4:41 AM CDT 9:19 PM CDT
Astronomical Twilight 3:58 AM CDT 10:03 PM CDT
Moon 1:55 AM CDT (5/2) 12:42 PM CDT (5/2)
Length of Visible Light 15h 18m
Length of Day
14h 14m
Waning Gibbous, 47% of the Moon is Illuminated
May 2
Waning Gibbous
May 9
New
May 17
First Quarter
May 24
Full
May 31
Last Quarter

Hourly Weather History & Observations

Time (CDT) Temp. Windchill Dew Point Humidity Pressure Visibility Wind Dir Wind Speed Gust Speed Precip Events Conditions
12:15 AM 39.2 °F 32.0 °F 32.0 °F 75% 30.34 in 10.0 mi North 11.5 mph 19.6 mph N/A   Overcast
12:35 AM 39.2 °F 31.6 °F 32.0 °F 75% 30.35 in 10.0 mi North 12.7 mph 19.6 mph N/A   Overcast
12:55 AM 39.2 °F 32.0 °F 32.0 °F 75% 30.36 in 10.0 mi North 11.5 mph 18.4 mph N/A   Overcast
1:35 AM 37.4 °F 29.3 °F 32.0 °F 81% 30.36 in 10.0 mi North 12.7 mph 18.4 mph N/A   Mostly Cloudy
1:55 AM 37.4 °F 29.8 °F 32.0 °F 81% 30.36 in 10.0 mi North 11.5 mph 17.3 mph N/A   Overcast
2:15 AM 37.4 °F 29.3 °F 32.0 °F 81% 30.35 in 10.0 mi North 12.7 mph - N/A   Overcast
2:35 AM 37.4 °F 29.3 °F 32.0 °F 81% 30.35 in 10.0 mi North 12.7 mph 18.4 mph N/A   Overcast
2:55 AM 37.4 °F 31.4 °F 32.0 °F 81% 30.35 in 10.0 mi North 8.1 mph 19.6 mph N/A   Overcast
3:15 AM 37.4 °F 29.3 °F 32.0 °F 81% 30.34 in 10.0 mi North 12.7 mph 18.4 mph N/A   Overcast
3:35 AM 37.4 °F 29.3 °F 32.0 °F 81% 30.33 in 10.0 mi North 12.7 mph 19.6 mph N/A   Overcast
3:55 AM 37.4 °F 29.3 °F 32.0 °F 81% 30.34 in 10.0 mi North 12.7 mph 21.9 mph N/A   Overcast
4:15 AM 37.4 °F 29.8 °F 32.0 °F 81% 30.33 in 10.0 mi NNE 11.5 mph 18.4 mph N/A   Overcast
4:35 AM 37.4 °F 30.3 °F 32.0 °F 81% 30.34 in 10.0 mi North 10.4 mph 21.9 mph N/A   Overcast
4:55 AM 37.4 °F 29.3 °F 32.0 °F 81% 30.35 in 10.0 mi North 12.7 mph 17.3 mph N/A   Overcast
5:15 AM 37.4 °F 29.8 °F 32.0 °F 81% 30.35 in 10.0 mi North 11.5 mph 19.6 mph N/A   Overcast
5:35 AM 37.4 °F 30.3 °F 32.0 °F 81% 30.35 in 10.0 mi North 10.4 mph - N/A   Overcast
5:55 AM 37.4 °F 30.8 °F 32.0 °F 81% 30.37 in 10.0 mi NNW 9.2 mph 20.7 mph N/A   Overcast
6:15 AM 35.6 °F 28.0 °F 32.0 °F 87% 30.38 in 10.0 mi NNW 10.4 mph 16.1 mph N/A   Overcast
6:35 AM 35.6 °F 27.5 °F 32.0 °F 87% 30.37 in 10.0 mi North 11.5 mph 20.7 mph N/A   Overcast
6:55 AM 35.6 °F 28.6 °F 32.0 °F 87% 30.37 in 7.0 mi North 9.2 mph 19.6 mph N/A Rain Light Rain
7:15 AM 35.6 °F 28.0 °F 32.0 °F 87% 30.39 in 10.0 mi NNW 10.4 mph 16.1 mph N/A Rain Light Rain
7:35 AM 33.8 °F 24.8 °F 32.0 °F 93% 30.36 in 10.0 mi North 12.7 mph 18.4 mph N/A   Light Drizzle
7:55 AM 33.8 °F 24.8 °F 33.8 °F 100% 30.41 in 10.0 mi NNW 12.7 mph - N/A   Overcast
8:15 AM 33.8 °F 27.0 °F 32.0 °F 93% 30.41 in 10.0 mi North 8.1 mph - N/A Rain Light Rain
8:35 AM 33.8 °F 24.3 °F 32.0 °F 93% 30.37 in 1.5 mi North 13.8 mph - 0.08 in   Overcast
8:55 AM 33.8 °F 25.8 °F 33.8 °F 100% 30.38 in 2.5 mi North 10.4 mph 16.1 mph 0.12 in Rain Rain
9:15 AM 33.8 °F 27.7 °F 33.8 °F 100% 30.40 in 4.0 mi North 6.9 mph - 0.02 in Rain Light Rain
9:35 AM 33.8 °F 27.7 °F 33.8 °F 100% 30.40 in 5.0 mi NNW 6.9 mph - 0.03 in Rain Light Rain
9:55 AM 35.6 °F 29.2 °F 33.8 °F 93% 30.39 in 10.0 mi North 8.1 mph - 0.04 in Rain Rain
10:15 AM 35.6 °F 28.0 °F 33.8 °F 93% 30.39 in 10.0 mi North 10.4 mph - N/A   Overcast
10:35 AM 35.6 °F 27.1 °F 33.8 °F 93% 30.38 in 10.0 mi North 12.7 mph 21.9 mph N/A   Overcast
10:55 AM 35.6 °F 26.2 °F 33.8 °F 93% 30.38 in 10.0 mi North 15.0 mph 19.6 mph N/A   Overcast
11:15 AM 35.6 °F 27.5 °F 33.8 °F 93% 30.38 in 10.0 mi North 11.5 mph 19.6 mph N/A   Overcast
11:35 AM 35.6 °F 26.2 °F 33.8 °F 93% 30.38 in 10.0 mi North 15.0 mph 18.4 mph N/A   Overcast
11:55 AM 35.6 °F 26.2 °F 33.8 °F 93% 30.37 in 10.0 mi North 15.0 mph 18.4 mph N/A   Overcast
12:15 PM 35.6 °F 27.1 °F 33.8 °F 93% 30.39 in 10.0 mi North 12.7 mph 16.1 mph N/A   Overcast
12:35 PM 35.6 °F 27.5 °F 33.8 °F 93% 30.40 in 10.0 mi NNW 11.5 mph 17.3 mph N/A   Overcast
12:55 PM 35.6 °F 27.5 °F 33.8 °F 93% 30.39 in 10.0 mi NNW 11.5 mph 18.4 mph N/A   Overcast
1:15 PM 35.6 °F 27.5 °F 33.8 °F 93% 30.37 in 7.0 mi North 11.5 mph 16.1 mph N/A   Overcast
1:35 PM 35.6 °F 28.6 °F 33.8 °F 93% 30.37 in 7.0 mi NNW 9.2 mph - N/A   Overcast
1:55 PM 35.6 °F 27.1 °F 33.8 °F 93% 30.37 in 10.0 mi North 12.7 mph 23.0 mph N/A   Overcast
2:15 PM 35.6 °F 28.6 °F 32.0 °F 87% 30.38 in 10.0 mi North 9.2 mph 19.6 mph N/A   Overcast
2:35 PM 35.6 °F 28.6 °F 32.0 °F 87% 30.39 in 10.0 mi North 9.2 mph - N/A   Overcast
2:55 PM 35.6 °F 28.6 °F 32.0 °F 87% 30.39 in 10.0 mi North 9.2 mph 18.4 mph N/A   Overcast
3:15 PM 35.6 °F 27.5 °F 32.0 °F 87% 30.37 in 10.0 mi NNW 11.5 mph - N/A   Overcast
3:35 PM 35.6 °F 27.1 °F 32.0 °F 87% 30.36 in 10.0 mi North 12.7 mph 18.4 mph N/A   Overcast
3:55 PM 35.6 °F 27.5 °F 32.0 °F 87% 30.36 in 10.0 mi NNW 11.5 mph 19.6 mph N/A   Overcast
4:15 PM 35.6 °F 26.2 °F 32.0 °F 87% 30.35 in 10.0 mi North 15.0 mph 19.6 mph N/A   Overcast
4:35 PM 33.8 °F 24.3 °F 32.0 °F 93% 30.36 in 10.0 mi North 13.8 mph 20.7 mph N/A   Light Drizzle
4:55 PM 33.8 °F 26.4 °F 32.0 °F 93% 30.37 in 10.0 mi NNW 9.2 mph 19.6 mph N/A   Mostly Cloudy
5:15 PM 33.8 °F 24.8 °F 32.0 °F 93% 30.36 in 4.0 mi North 12.7 mph 19.6 mph N/A Rain Rain
5:35 PM 33.8 °F 26.4 °F 32.0 °F 93% 30.37 in 2.5 mi North 9.2 mph 19.6 mph 0.03 in Snow Snow
5:55 PM 33.8 °F 26.4 °F 32.0 °F 93% 30.36 in 5.0 mi NNW 9.2 mph - 0.04 in Rain Light Rain
6:15 PM 33.8 °F 25.8 °F 32.0 °F 93% 30.36 in 10.0 mi North 10.4 mph 16.1 mph N/A   Light Drizzle
6:55 PM 32.0 °F 23.0 °F 32.0 °F 100% 30.35 in 10.0 mi North 11.5 mph - N/A   Light Drizzle
7:00 PM 33.8 °F 24.8 °F 32.0 °F 93% 30.35 in 10.0 mi North 12.7 mph 17.3 mph N/A   Light Drizzle
7:15 PM 32.0 °F 22.5 °F 32.0 °F 100% 30.34 in 10.0 mi North 12.7 mph 19.6 mph N/A   Mostly Cloudy
7:35 PM 32.0 °F 23.0 °F 32.0 °F 100% 30.35 in 10.0 mi North 11.5 mph 17.3 mph N/A   Mostly Cloudy
7:55 PM 32.0 °F 24.8 °F 32.0 °F 100% 30.35 in 7.0 mi North 8.1 mph - N/A   Mostly Cloudy
8:35 PM 32.0 °F 24.8 °F 30.2 °F 93% 30.36 in 10.0 mi North 8.1 mph - N/A   Mostly Cloudy
8:55 PM 32.0 °F 25.6 °F 30.2 °F 93% 30.37 in 10.0 mi North 6.9 mph - N/A   Mostly Cloudy
9:15 PM 32.0 °F 25.6 °F 32.0 °F 100% 30.37 in 10.0 mi North 6.9 mph - N/A   Mostly Cloudy
9:35 PM 32.0 °F 25.6 °F 32.0 °F 100% 30.36 in 10.0 mi North 6.9 mph - N/A   Overcast
9:55 PM 32.0 °F 23.6 °F 30.2 °F 93% 30.36 in 10.0 mi North 10.4 mph - N/A   Mostly Cloudy
10:15 PM 32.0 °F 24.8 °F 30.2 °F 93% 30.35 in 10.0 mi North 8.1 mph - N/A   Mostly Cloudy
10:35 PM 32.0 °F 25.6 °F 30.2 °F 93% 30.34 in 10.0 mi North 6.9 mph - N/A   Overcast
10:55 PM 32.0 °F 25.6 °F 30.2 °F 93% 30.35 in 10.0 mi North 6.9 mph - N/A   Overcast
11:15 PM 32.0 °F - 30.2 °F 93% 30.32 in 10.0 mi Calm Calm - N/A   Mostly Cloudy
11:35 PM 32.0 °F - 30.2 °F 93% 30.32 in 7.0 mi Calm Calm - N/A   Mostly Cloudy
11:55 PM 32.0 °F - 32.0 °F 100% 30.32 in 7.0 mi Calm Calm - N/A   Overcast